Showing default

NOAA 20, 43013

Orbit data source: Space-Track

NOAA 20, 43013 is an American payload satellite in SSO that was launched on Sat, 18 Nov 2017 UTC via a DELTA 7920-10C launch vehicle from the Air Force Western Test Range (AFWTR). Payloads include a variety of satellites, spacecraft, and rockets equipped with specific instruments for various scientific and technological missions. These include communications satellites like Starlink; space stations such as the ISS; scientific satellites like the Hubble; Earth observation satellites from companies like Planet Labs, Umbra, and HawkEye 360; GPS; miniature CubeSats for education and research; and military/defense satellites.

Loading next visibility...
NOAA 20 details
Identifier
43013, 2017-073A
Orbit
SSO
Last TLE update9 hours ago
Origin
Flag of USGSFC/NOAA (US)
ManufacturerBall
MissionOperational Civil Weather
Bus & MotorBCP-2000, AOCS
Mass2,220 kg wet, ~1,400 kg dry
Launch date (UTC)
2017-11-18 (7 years ago)
Launch vehicle
DELTA 7920-10C
Launch site
Air Force Western Test Range (AFWTR)
Object type
Payload
Rocket body
Debris
Shape & HBRBox + 1 Pan, 10 m
Radar Cross Section8.434 m², Large (>1 m²)

Expand to show TLE details & history

TLE from 9 hours ago
0 NOAA 20
1 43013U 17073A   24356.90033652  .00000214  00000-0  12209-3 0  9991
2 43013  98.7261 291.8106 0002058  63.5684 296.5703 14.19522459367538
Epoch: 2024-12-21T21:36Z
Definitive object data (Epoch: 2024-12-21T21:36:29.075Z)
Latitude-0.00003°
Longitude-123.2554°
Altitude829.218 km
Speed7.439 km/s
True Right ascension19h 27m 14s
True Declination0° 00' 00"
Sunlit
Object was in daylight at TLE epoch
Visualization TLE readout
Latitude78.84217°
Longitude-173.61234°
Altitude838.795 km
Speed7.441 km/s
Apparent Right ascension17h 13m 06s
Apparent Declination25° 38' 57"
Sunlit
Object is in daylight
Visualization observer readout
Local Sidereal Time05:32:05
Azimuth4.694° NNE
Elevation-24.286°
Doppler factor1
Orbital elements
Apogee altitude825.61 km
Perigee altitude822.646 km
Semi-major axis7,202.265 km
Eccentricity0.0002058
Inclination98.7261°
RAAN291.8106°
Arg. of periapsis63.5684°
True anomaly296.54921°
Mean anomaly296.5703°
Eccentric anomaly296.55975°
Mean motion3.55091 °/min
BSTAR0.00012209
Orbital period101.38 mins
Loading maneuver chart data...
Loading historical data...
Loading historical data...
Loading historical data...
Loading historical data...
Loading historical data...
Loading historical data...
Loading historical data...

NOAA 20 Visibility forecast

Observer location: undefined°, undefined

Span
Click to sort rows by Start time (UTC) header in descending order
Start Az.
Max El. time (UTC)
Max El. Az.
Max El.
End time (UTC)
End Az.
9 mins2024-12-22 08:20:19.483Z26.061° NE2024-12-22 08:25:19.483Z108.611° ESE37.223°2024-12-22 08:29:19.483Z171.496° S
6 mins2024-12-22 10:02:19.483Z332.134° NNW2024-12-22 10:05:19.483Z290.06° WNW19.912°2024-12-22 10:08:19.483Z252.893° W
10 mins2024-12-22 19:42:19.483Z159.801° S2024-12-22 19:47:19.483Z93.93° ESE44.359°2024-12-22 19:52:19.483Z349.54° N
|